Marfa, TX

4:44 PM CDT on August 23, 2017 (GMT -0500)
Marfa Municipal

Weather History for KMRF - February, 2014

Change the Weather History Date:

Wednesday, February 26, 2014

  Actual Average Record
Temperature  
Mean Temperature 46 °F -  
Max Temperature 60 °F 58 °F 77 °F (2011)
Min Temperature 33 °F 29 °F 17 °F (2013)
Degree Days  
Heating Degree Days 18    
Moisture  
Dew Point 35 °F    
Average Humidity 67    
Maximum Humidity 100    
Minimum Humidity 31    
Precipitation  
Precipitation 0.00 in - - ()
Sea Level Pressure  
Sea Level Pressure 30.11 in    
Wind  
Wind Speed 10 mph (NNW)    
Max Wind Speed 23 mph    
Max Gust Speed 22 mph    
Visibility 10 miles    
Events      
Averages and records for this station are not official NWS values.
T = Trace of Precipitation, MM = Missing Value Source: NWS Daily Summary

Daily Weather History Graph

Daily Weather History Graph

Search for Another Location

Airport or City:

Trip Planner

Search our weather history database for the weather conditions in past years. The results will help you decide how hot, cold, wet, or windy it might be!

Date:

Astronomy

Feb. 26, 2014 Rise Set
Actual Time 7:25 AM CST 6:52 PM CST
Civil Twilight 7:01 AM CST 7:17 PM CST
Nautical Twilight 6:33 AM CST 7:44 PM CST
Astronomical Twilight 6:05 AM CST 8:12 PM CST
Moon 5:04 AM CST (2/26) 4:17 PM CST (2/26)
Length of Visible Light 12h 15m
Length of Day
11h 27m
Waning Crescent, 10% of the Moon is Illuminated
Feb 26
Waning Crescent
Mar 1
New
Mar 8
First Quarter
Mar 16
Full
Mar 23
Last Quarter

Hourly Weather History & Observations

Time (CST) Temp. Windchill Dew Point Humidity Pressure Visibility Wind Dir Wind Speed Gust Speed Precip Events Conditions
12:15 AM 55.4 °F - 32.0 °F 41% 30.10 in 10.0 mi WSW 5.8 mph - N/A   Overcast
12:35 AM 60.8 °F - 30.2 °F 31% 30.10 in 10.0 mi West 12.7 mph - N/A   Partly Cloudy
12:55 AM 60.8 °F - 33.8 °F 36% 30.11 in 10.0 mi West 16.1 mph - N/A   Clear
1:15 AM 59.0 °F - 35.6 °F 42% 30.11 in 10.0 mi West 16.1 mph - N/A   Clear
1:35 AM 57.2 °F - 35.6 °F 44% 30.10 in 10.0 mi West 13.8 mph - N/A   Partly Cloudy
1:55 AM 57.2 °F - 35.6 °F 44% 30.09 in 10.0 mi West 9.2 mph - N/A   Clear
2:15 AM 55.4 °F - 35.6 °F 47% 30.09 in 10.0 mi West 6.9 mph - N/A   Mostly Cloudy
2:35 AM 55.4 °F - 35.6 °F 47% 30.08 in 10.0 mi West 8.1 mph - N/A   Overcast
2:55 AM 55.4 °F - 35.6 °F 47% 30.08 in 10.0 mi WNW 6.9 mph - N/A   Overcast
3:15 AM 55.4 °F - 35.6 °F 47% 30.08 in 10.0 mi West 8.1 mph - N/A   Overcast
3:35 AM 55.4 °F - 35.6 °F 47% 30.07 in 10.0 mi WNW 8.1 mph - N/A   Scattered Clouds
3:55 AM 53.6 °F - 35.6 °F 51% 30.07 in 10.0 mi NW 6.9 mph - N/A   Mostly Cloudy
4:15 AM 53.6 °F - 35.6 °F 51% 30.07 in 10.0 mi North 6.9 mph - N/A   Overcast
4:35 AM 53.6 °F - 35.6 °F 51% 30.07 in 10.0 mi NNW 6.9 mph - N/A   Overcast
4:55 AM 50.0 °F - 35.6 °F 58% 30.09 in 10.0 mi NNE 13.8 mph 19.6 mph N/A   Overcast
5:15 AM 44.6 °F 35.9 °F 37.4 °F 76% 30.09 in 10.0 mi ENE 23.0 mph - N/A   Overcast
5:35 AM 42.8 °F 34.3 °F 37.4 °F 81% 30.10 in 10.0 mi NE 19.6 mph - N/A   Overcast
5:55 AM 42.8 °F 34.3 °F 39.2 °F 87% 30.11 in 6.0 mi NNE 19.6 mph - N/A   Overcast
6:15 AM 41.0 °F 32.5 °F 39.2 °F 93% 30.13 in 8.0 mi NE 17.3 mph - N/A   Overcast
6:35 AM 39.2 °F 30.5 °F 37.4 °F 93% 30.13 in 10.0 mi NE 16.1 mph - N/A   Mostly Cloudy
6:55 AM 37.4 °F 27.5 °F 37.4 °F 100% 30.15 in 10.0 mi NE 18.4 mph 21.9 mph N/A   Mostly Cloudy
7:15 AM 37.4 °F 30.3 °F 35.6 °F 93% 30.16 in 10.0 mi NE 10.4 mph - N/A   Overcast
7:35 AM 35.6 °F 27.1 °F 33.8 °F 93% 30.17 in 10.0 mi NE 12.7 mph - N/A   Overcast
7:55 AM 33.8 °F 23.9 °F 32.0 °F 93% 30.17 in 10.0 mi NNE 15.0 mph 20.7 mph N/A   Overcast
8:15 AM 33.8 °F 24.3 °F 33.8 °F 100% 30.18 in 10.0 mi NNE 13.8 mph - N/A   Overcast
8:35 AM 33.8 °F 23.9 °F 32.0 °F 93% 30.20 in 10.0 mi NNE 15.0 mph - N/A   Overcast
8:55 AM 33.8 °F 24.8 °F 33.8 °F 100% 30.21 in 8.0 mi NNE 12.7 mph - N/A   Overcast
9:15 AM 33.8 °F 24.8 °F 33.8 °F 100% 30.20 in 9.0 mi NNE 12.7 mph - N/A   Overcast
9:35 AM 33.8 °F 23.5 °F 32.0 °F 93% 30.21 in 6.0 mi NE 16.1 mph - N/A   Overcast
9:55 AM 33.8 °F 23.5 °F 32.0 °F 93% 30.21 in 2.5 mi NE 16.1 mph 21.9 mph N/A   Overcast
10:15 AM 33.8 °F 23.2 °F 32.0 °F 93% 30.21 in 3.0 mi NE 17.3 mph 21.9 mph N/A   Overcast
10:35 AM 33.8 °F 23.2 °F 33.8 °F 100% 30.21 in 5.0 mi NE 17.3 mph - N/A   Overcast
10:55 AM 33.8 °F 23.2 °F 32.0 °F 93% 30.19 in 9.0 mi ENE 17.3 mph 21.9 mph N/A   Overcast
11:15 AM 35.6 °F 26.2 °F 33.8 °F 93% 30.20 in 10.0 mi NE 15.0 mph - N/A   Overcast
11:35 AM 35.6 °F 26.2 °F 33.8 °F 93% 30.20 in 10.0 mi ENE 15.0 mph - N/A   Overcast
11:55 AM 37.4 °F 30.8 °F 33.8 °F 87% 30.20 in 10.0 mi ENE 9.2 mph - N/A   Overcast
12:15 PM 39.2 °F 33.6 °F 35.6 °F 87% 30.18 in 10.0 mi NNW 8.1 mph - N/A   Overcast
12:35 PM 41.0 °F 39.0 °F 33.8 °F 76% 30.17 in 10.0 mi WNW 3.5 mph - N/A   Mostly Cloudy
12:55 PM 42.8 °F 41.1 °F 35.6 °F 76% 30.16 in 10.0 mi NW 3.5 mph - N/A   Clear
1:15 PM 44.6 °F 41.4 °F 35.6 °F 71% 30.14 in 10.0 mi North 5.8 mph - N/A   Clear
1:35 PM 46.4 °F - 33.8 °F 62% 30.13 in 10.0 mi Calm Calm - N/A   Clear
1:55 PM 48.2 °F - 35.6 °F 62% 30.11 in 10.0 mi South 8.1 mph - N/A   Clear
2:15 PM 50.0 °F - 35.6 °F 58% 30.10 in 10.0 mi SSW 4.6 mph - N/A   Clear
2:35 PM 51.8 °F - 35.6 °F 54% 30.08 in 10.0 mi South 8.1 mph - N/A   Clear
2:55 PM 53.6 °F - 37.4 °F 54% 30.07 in 10.0 mi South 5.8 mph - N/A   Clear
3:15 PM 55.4 °F - 37.4 °F 51% 30.06 in 10.0 mi SSW 4.6 mph - N/A   Clear
3:35 PM 57.2 °F - 37.4 °F 48% 30.05 in 10.0 mi SSW 6.9 mph - N/A   Scattered Clouds
3:55 PM 59.0 °F - 37.4 °F 45% 30.05 in 10.0 mi Calm Calm - N/A   Mostly Cloudy
4:15 PM 57.2 °F - 37.4 °F 48% 30.04 in 10.0 mi SSW 9.2 mph - N/A   Partly Cloudy
4:35 PM 57.2 °F - 37.4 °F 48% 30.04 in 10.0 mi SSW 9.2 mph - N/A   Scattered Clouds
4:55 PM 59.0 °F - 35.6 °F 42% 30.03 in 10.0 mi WSW 6.9 mph - N/A   Partly Cloudy
5:15 PM 59.0 °F - 35.6 °F 42% 30.04 in 10.0 mi West 10.4 mph - N/A   Partly Cloudy
5:35 PM 60.8 °F - 35.6 °F 39% 30.04 in 10.0 mi WSW 12.7 mph 18.4 mph N/A   Partly Cloudy
5:55 PM 60.8 °F - 33.8 °F 36% 30.04 in 10.0 mi WSW 15.0 mph - N/A   Clear
6:15 PM 59.0 °F - 33.8 °F 39% 30.05 in 10.0 mi WSW 11.5 mph - N/A   Clear
6:35 PM 59.0 °F - 33.8 °F 39% 30.05 in 10.0 mi WSW 13.8 mph - N/A   Clear
6:55 PM 55.4 °F - 37.4 °F 51% 30.05 in 10.0 mi SSW 9.2 mph - N/A   Clear
7:15 PM 53.6 °F - 37.4 °F 54% 30.06 in 10.0 mi South 8.1 mph - N/A   Clear
7:35 PM 51.8 °F - 35.6 °F 54% 30.06 in 10.0 mi South 8.1 mph - N/A   Clear
7:55 PM 50.0 °F - 35.6 °F 58% 30.07 in 10.0 mi South 8.1 mph - N/A   Clear
8:15 PM 48.2 °F - 35.6 °F 62% 30.07 in 10.0 mi South 9.2 mph - N/A   Clear
8:35 PM 48.2 °F - 35.6 °F 62% 30.07 in 10.0 mi South 8.1 mph - N/A   Clear
8:55 PM 44.6 °F 41.4 °F 33.8 °F 66% 30.09 in 10.0 mi ENE 5.8 mph - N/A   Clear
9:15 PM 44.6 °F - 35.6 °F 71% 30.09 in 10.0 mi Calm Calm - N/A   Clear
9:35 PM 42.8 °F 40.1 °F 33.8 °F 70% 30.09 in 10.0 mi East 4.6 mph - N/A   Clear
9:55 PM 42.8 °F 40.1 °F 33.8 °F 70% 30.09 in 10.0 mi East 4.6 mph - N/A   Clear
10:15 PM 39.2 °F 35.0 °F 32.0 °F 75% 30.09 in 10.0 mi NE 5.8 mph - N/A   Clear
10:35 PM 39.2 °F 35.9 °F 32.0 °F 75% 30.09 in 10.0 mi NE 4.6 mph - N/A   Clear
10:55 PM 37.4 °F 34.9 °F 32.0 °F 81% 30.10 in 10.0 mi NE 3.5 mph - N/A   Clear
11:15 PM 35.6 °F 32.8 °F 30.2 °F 81% 30.09 in 10.0 mi NNE 3.5 mph - N/A   Clear
11:35 PM 35.6 °F 29.9 °F 30.2 °F 81% 30.09 in 10.0 mi North 6.9 mph - N/A   Clear
11:55 PM 35.6 °F 29.9 °F 30.2 °F 81% 30.09 in 10.0 mi North 6.9 mph - N/A   Clear